Location: Bosdarros
(43.2167°N, 0.3667°W)
Time: 03:40:44
(UTC+00:00)

S3M - Pass Details

Date: 22 April 2021
Orbit: 949 x 1004 km, 83.0° (Epoch: 15 May)

Event Time Altitude Azimuth Distance (km) Brightness Sun altitude
Exits shadow 22:05:25 58° 79° (E) 1,159 4.2 -28.4°
Drops below altitude 10° 22:11:22 10° 15° (NNE) 2,787 6.9 -29.0°
Sets 22:13:56 0° 12° (NNE) 3,739 7.7 -29.2°
